Change the Weather History Date:

Thursday, November 8, 2012

  Actual Average (KLOZ) Record (KLOZ)
Temperature  
Mean Temperature 40 °F 50 °F  
Max Temperature 55 °F 62 °F 77 °F (1975)
Min Temperature 26 °F 39 °F 19 °F (1967)
Degree Days  
Heating Degree Days 24 15  
Month to date heating degree days 111  
Since 1 July heating degree days 417  
Cooling Degree Days 0 0  
Month to date cooling degree days 0  
Moisture  
Dew Point 31 °F    
Average Humidity 81    
Maximum Humidity 100    
Minimum Humidity 38    
Precipitation  
Precipitation 0.00 in 0.11 in 2.66 in (1986)
Month to date precipitation 0.91  
Sea Level Pressure  
Sea Level Pressure 30.18 in    
Wind  
Wind Speed 1 mph (WNW)    
Max Wind Speed 7 mph    
Max Gust Speed -    
Visibility 6 miles    
Events Fog , Rain    
T = Trace of Precipitation, MM = Missing Value Source: NWS Daily Summary

Daily Weather History Graph

Daily Weather History Graph

Search for Another Location

Airport or City:

Trip Planner

Search our weather history database for the weather conditions in past years. The results will help you decide how hot, cold, wet, or windy it might be!

Date:

Astronomy

Nov. 08, 2012 Rise Set
Actual Time 7:03 AM EST 5:28 PM EST
Civil Twilight 6:36 AM EST 5:56 PM EST
Nautical Twilight 6:05 AM EST 6:26 PM EST
Astronomical Twilight 5:35 AM EST 6:57 PM EST
Moon 1:07 AM EST (11/8) 2:01 PM EST (11/8)
Length of Visible Light 11h 19m
Length of Day
10h 24m
Waning Crescent, 33% of the Moon is Illuminated
Nov 8
Waning Crescent
Nov 13
New
Nov 20
First Quarter
Nov 28
Full
Dec 6
Last Quarter

Hourly Weather History & Observations

Time (EST) Temp. Windchill Dew Point Humidity Pressure Visibility Wind Dir Wind Speed Gust Speed Precip Events Conditions
12:15 AM 33.8 °F - 33.8 °F 100% 30.08 in 3.0 mi Calm Calm - N/A   Mist
12:55 AM 32.0 °F - 32.0 °F 100% 30.09 in 5.0 mi Calm Calm - N/A   Mist
1:15 AM 32.0 °F - 32.0 °F 100% 30.09 in 5.0 mi Calm Calm - N/A   Mist
1:35 AM 32.0 °F - 32.0 °F 100% 30.09 in 3.0 mi Calm Calm - N/A   Mist
2:15 AM 32.0 °F - 32.0 °F 100% 30.10 in 2.5 mi Calm Calm - N/A   Mist
2:35 AM 32.0 °F - 32.0 °F 100% 30.10 in 2.5 mi Calm Calm - N/A   Mist
2:55 AM 32.0 °F - 32.0 °F 100% 30.11 in 3.0 mi Calm Calm - N/A   Mist
3:15 AM 32.0 °F - 32.0 °F 100% 30.11 in 1.8 mi Calm Calm - N/A   Mist
3:35 AM 32.0 °F - 32.0 °F 100% 30.12 in 0.2 mi Calm Calm - N/A Fog Fog
3:55 AM 30.2 °F - 30.2 °F 100% 30.12 in 0.2 mi Calm Calm - N/A Fog Light Freezing Fog
4:15 AM 28.4 °F - 28.4 °F 100% 30.13 in 0.8 mi Calm Calm - N/A   Mist
4:35 AM 28.4 °F - 28.4 °F 100% 30.14 in 0.5 mi Calm Calm - N/A Fog Light Freezing Fog
4:55 AM 30.2 °F - 30.2 °F 100% 30.14 in 0.2 mi Calm Calm - N/A Fog Light Freezing Fog
5:15 AM 28.4 °F - 28.4 °F 100% 30.15 in 0.2 mi Calm Calm - N/A Fog Light Freezing Fog
5:35 AM 28.4 °F - 28.4 °F 100% 30.15 in 0.2 mi Calm Calm - N/A Fog Light Freezing Fog
5:55 AM 26.6 °F - 26.6 °F 100% 30.16 in 0.2 mi Calm Calm - N/A Fog Light Freezing Fog
6:15 AM 28.4 °F - 28.4 °F 100% 30.17 in 0.2 mi Calm Calm - N/A Fog Light Freezing Fog
6:35 AM 26.6 °F - 26.6 °F 100% 30.17 in 0.2 mi Calm Calm - N/A Fog Light Freezing Fog
6:55 AM 26.6 °F - 26.6 °F 100% 30.18 in 0.8 mi Calm Calm - N/A   Mist
7:15 AM 26.6 °F - 26.6 °F 100% 30.19 in 0.2 mi Calm Calm - N/A Fog Light Freezing Fog
7:35 AM 26.6 °F - 26.6 °F 100% 30.20 in 0.2 mi Calm Calm - N/A Fog Light Freezing Fog
7:55 AM 28.4 °F - 28.4 °F 100% 30.21 in 0.2 mi Calm Calm - N/A Fog Light Freezing Fog
8:15 AM 28.4 °F - 28.4 °F 100% 30.22 in 0.2 mi Calm Calm - N/A Fog Light Freezing Fog
8:35 AM 28.4 °F - 28.4 °F 100% 30.23 in 0.2 mi Calm Calm - N/A Fog Light Freezing Fog
8:55 AM 30.2 °F - 30.2 °F 100% 30.23 in 0.2 mi Calm Calm - N/A Fog Light Freezing Fog
9:15 AM 32.0 °F - 32.0 °F 100% 30.23 in 0.2 mi Calm Calm - N/A Rain Light Rain
9:35 AM 32.0 °F - 32.0 °F 100% 30.23 in 0.2 mi Calm Calm - N/A Fog Fog
9:55 AM 33.8 °F - 33.8 °F 100% 30.23 in 0.2 mi Calm Calm - N/A Fog Fog
10:15 AM 35.6 °F - 35.6 °F 100% 30.24 in 1.2 mi Calm Calm - N/A   Mostly Cloudy
10:35 AM 37.4 °F - 37.4 °F 100% 30.24 in 5.0 mi Calm Calm - N/A   Partly Cloudy
10:55 AM 41.0 °F - 41.0 °F 100% 30.24 in 8.0 mi Calm Calm - N/A   Clear
11:15 AM 42.8 °F 41.1 °F 42.8 °F 100% 30.24 in 10.0 mi WSW 3.5 mph - N/A   Clear
11:35 AM 46.4 °F 45.2 °F 39.2 °F 76% 30.23 in 10.0 mi North 3.5 mph - N/A   Clear
11:55 AM 48.2 °F - 32.0 °F 54% 30.23 in 10.0 mi North 6.9 mph - N/A   Clear
12:15 PM 50.0 °F - 32.0 °F 50% 30.22 in 10.0 mi North 3.5 mph - N/A   Clear
12:35 PM 50.0 °F - 32.0 °F 50% 30.21 in 10.0 mi Calm Calm - N/A   Clear
12:55 PM 50.0 °F - 32.0 °F 50% 30.20 in 10.0 mi Calm Calm - N/A   Clear
1:15 PM 51.8 °F - 32.0 °F 47% 30.20 in 10.0 mi NNW 5.8 mph - N/A   Clear
1:35 PM 53.6 °F - 32.0 °F 44% 30.18 in 10.0 mi Calm Calm - N/A   Clear
1:55 PM 53.6 °F - 32.0 °F 44% 30.18 in 10.0 mi West 3.5 mph - N/A   Clear
2:15 PM 53.6 °F - 32.0 °F 44% 30.17 in 10.0 mi Calm Calm - N/A   Clear
2:35 PM 53.6 °F - 28.4 °F 38% 30.17 in 10.0 mi WNW 3.5 mph - N/A   Clear
2:55 PM 53.6 °F - 30.2 °F 41% 30.17 in 10.0 mi Calm Calm - N/A   Clear
3:15 PM 53.6 °F - 32.0 °F 44% 30.16 in 10.0 mi SW 3.5 mph - N/A   Clear
3:35 PM 55.4 °F - 30.2 °F 38% 30.16 in 10.0 mi Calm Calm - N/A   Clear
3:55 PM 53.6 °F - 28.4 °F 38% 30.17 in 10.0 mi West 3.5 mph - N/A   Clear
4:15 PM 55.4 °F - 32.0 °F 41% 30.18 in 10.0 mi WNW 5.8 mph - N/A   Clear
4:35 PM 53.6 °F - 30.2 °F 41% 30.18 in 10.0 mi WNW 4.6 mph - N/A   Clear
4:55 PM 51.8 °F - 32.0 °F 47% 30.18 in 10.0 mi WNW 4.6 mph - N/A   Clear
5:15 PM 50.0 °F - 32.0 °F 50% 30.18 in 10.0 mi West 4.6 mph - N/A   Clear
5:35 PM 48.2 °F - 32.0 °F 54% 30.18 in 10.0 mi WNW 3.5 mph - N/A   Unknown
5:55 PM 46.4 °F 44.3 °F 32.0 °F 57% 30.19 in 10.0 mi WNW 4.6 mph - N/A   Unknown
6:15 PM 44.6 °F 42.2 °F 32.0 °F 61% 30.19 in 10.0 mi NW 4.6 mph - N/A   Unknown
6:35 PM 44.6 °F 42.2 °F 32.0 °F 61% 30.20 in 10.0 mi West 4.6 mph - N/A   Unknown
6:55 PM 44.6 °F - 32.0 °F 61% 30.21 in 10.0 mi Calm Calm - N/A   Unknown
7:15 PM 44.6 °F - 33.8 °F 66% 30.21 in 10.0 mi Calm Calm - N/A   Unknown
7:35 PM 41.0 °F - 33.8 °F 76% 30.21 in 10.0 mi Calm Calm - N/A   Unknown
7:55 PM 39.2 °F - 32.0 °F 75% 30.21 in 10.0 mi Calm Calm - N/A   Unknown
8:15 PM 37.4 °F - 32.0 °F 81% 30.21 in 10.0 mi Calm Calm - N/A   Unknown
8:35 PM 37.4 °F - 32.0 °F 81% 30.21 in 10.0 mi Calm Calm - N/A   Unknown
8:55 PM 33.8 °F - 32.0 °F 93% 30.21 in 10.0 mi Calm Calm - N/A   Unknown
9:15 PM 32.0 °F - 32.0 °F 100% 30.21 in 10.0 mi Calm Calm - N/A   Unknown
9:35 PM 32.0 °F - 32.0 °F 100% 30.21 in 10.0 mi Calm Calm - N/A   Unknown
9:55 PM 32.0 °F - 32.0 °F 100% 30.22 in 10.0 mi Calm Calm - N/A   Unknown
10:15 PM 33.8 °F - 32.0 °F 93% 30.22 in 10.0 mi Calm Calm - N/A   Unknown
10:35 PM 32.0 °F - 32.0 °F 100% 30.22 in 8.0 mi Calm Calm - N/A   Unknown
10:55 PM 32.0 °F - 30.2 °F 93% 30.22 in 8.0 mi Calm Calm - N/A   Unknown
11:15 PM 30.2 °F - 28.4 °F 93% 30.22 in 7.0 mi Calm Calm - N/A   Unknown
11:35 PM 32.0 °F - 30.2 °F 93% 30.22 in 8.0 mi Calm Calm - N/A   Unknown
11:55 PM 28.4 °F - 28.4 °F 100% 30.22 in 8.0 mi Calm Calm - N/A   Unknown